Showing default

OPS 4078 (DMSP 4B F2), 3510

Orbit data source: Space-Track

OPS 4078 (DMSP 4B F2), 3510 is a payload satellite owned by SAMSO (US) in SSO that was launched on Wed, 23 Oct 1968 UTC via a THOR BURNER 2 launch vehicle from the Air Force Western Test Range (AFWTR). Payload-class satellites include a variety of spacecraft equipped with specific instruments for various scientific and technological missions. These include communications satellites like Starlink; space stations such as the ISS; scientific satellites like the Hubble; Earth observation satellites from companies like Planet Labs, Umbra, and HawkEye 360; GPS; miniature CubeSats for education and research; and military/defense satellites.

Loading next visibility...
Identifier
3510, 1968-092A
Orbit
SSO
Country
Flag of USUS
Related business
Manufacturer
RCA/East Windsor
Mission
Non-operational spacecraft
Bus & Motor
DMSP BLOCK 4B, Unknown motor
Mass
79 kg wet, 79 kg dry
Launch date (UTC)
1968-10-23 (57 years ago)
Launch vehicle
THOR BURNER 2
Launch site
Air Force Western Test Range (AFWTR)
Object type
Payload
Rocket body
Debris
Shape & HBR
Unknown
Radar Cross Section
Medium (>0.1 m² and <1 m²)

Expand to show TLE details & history
Last TLE update: 1 day ago

TLE from 1 day ago
0 OPS 4078 (DMSP 4B F2)
1 03510U 68092A   25306.30930693  .00000197  00000-0  96164-4 0  9990
2 03510  98.5485  68.3195 0028624 273.0397  86.7509 14.28150003964867
Epoch: 2025-11-02T07:25Z
TLE epoch observation values (Epoch: 2025-11-02T07:25:24.118Z)
Latitude
-0.00005°
Longitude
-84.85787°
Altitude
799.746 km
Speed
7.454 km/s
True Right ascension
04h 33m 16s
True Declination
0° 00' 00"
Sunlit
Object was in full shadow at epoch
Visualization orbit readout
Latitude
Unknown
Longitude
Unknown
Altitude
Unknown
Speed
Unknown
Apparent Right ascension
Unknown
Apparent Declination
Unknown
Sunlit
N/A
Visualization observer readout
Local Sidereal Time
07:34:58
Azimuth
Unknown
Elevation
Unknown
Doppler factor
Unknown
Orbital elements
Apogee altitude
815.594 km
Perigee altitude
774.529 km
Semi-major axis
7,173.198 km
Eccentricity
0.00286
Inclination
98.5485°
RAAN
68.3195°
Arg. of periapsis
273.0397°
True anomaly
87.07844°
Mean anomaly
86.7509°
Eccentric anomaly
86.91467°
Mean motion
3.57251 °/min
Orbital period
100.77 mins
BSTAR
0.000096164
Loading maneuver chart data...
Computing Atmospheric mass density...
Loading historical data...
Loading historical data...
Loading historical data...
Loading historical data...
Loading historical data...
Loading historical data...
Loading historical data...
Other satellites on launch #92 in the year 1968 (1968-10-23 UTC)

Documentation

Showing up to 5 results
|